Daily weather history


Statistical History for Thursday, February 21, 2013

Tampa Knight Airport, FL


  Actual Average (KTPA) Record (KTPA)
Temperature
Mean Temperature 64 °F  
Max Temperature 73 °F 87 °F (1961)
Min Temperature 55 °F 31 °F (1958)
Degree Days
Heating Degree Days 3  
Month to date heating degree days 86  
Since 1 July heating degree days 451  
Cooling Degree Days 2  
Month to date cooling degree days 42  
Year to date cooling degree days 92  
Growing Degree Days 18 (Base - )  
Moisture
Dew Point   
Average Humidity    
Maximum Humidity    
Minimum Humidity    
Precipitation
Precipitation 0.10 in 2.06 in (1903)
Month to date precipitation 2.15  
Year to date precipitation 4.38  
Wind
Wind Speed   
Max Wind Speed   
Max Gust Speed   
Visibility   
Events   

Key: T is trace of precipitation, MM is missing value
Source: NWS Daily Summary
Time(EST)TemperatureDew PointHumidity Sea Level Pressure Visibility Wind DirectionWind SpeedGust SpeedPrecipitationEventsConditions
12:15 AM 60.8 °F 53.6 °F 77% 30.08 in 10.0 miles NE 5.8 mph - N/A   Clear
12:35 AM 60.8 °F 53.6 °F 77% 30.08 in 10.0 miles NE 5.8 mph - N/A   Clear
12:55 AM 60.8 °F 53.6 °F 77% 30.07 in 10.0 miles ENE 4.6 mph - N/A   Clear
1:15 AM 60.8 °F 53.6 °F 77% 30.07 in 10.0 miles ENE 4.6 mph - N/A   Clear
1:35 AM 60.8 °F 53.6 °F 77% 30.07 in 10.0 miles East 4.6 mph - N/A   Clear
1:55 AM 60.8 °F 53.6 °F 77% 30.07 in 10.0 miles ENE 6.9 mph - N/A   Clear
2:15 AM 60.8 °F 53.6 °F 77% 30.06 in 10.0 miles ENE 5.8 mph - N/A   Clear
2:35 AM 59.0 °F 53.6 °F 82% 30.06 in 10.0 miles East 4.6 mph - N/A   Clear
2:55 AM 59.0 °F 53.6 °F 82% 30.06 in 10.0 miles ENE 3.5 mph - N/A   Scattered Clouds
3:15 AM 59.0 °F 55.4 °F 88% 30.06 in 10.0 miles NE 4.6 mph - N/A   Mostly Cloudy
3:35 AM 59.0 °F 53.6 °F 82% 30.04 in 10.0 miles ENE 5.8 mph - N/A   Scattered Clouds
3:55 AM 59.0 °F 53.6 °F 82% 30.04 in 10.0 miles ENE 6.9 mph - N/A   Clear
4:15 AM 59.0 °F 53.6 °F 82% 30.05 in 10.0 miles NE 5.8 mph - N/A   Clear
4:35 AM 59.0 °F 53.6 °F 82% 30.05 in 10.0 miles ENE 5.8 mph - N/A   Clear
4:55 AM 59.0 °F 53.6 °F 82% 30.05 in 10.0 miles NE 5.8 mph - N/A   Clear
5:15 AM 59.0 °F 53.6 °F 82% 30.06 in 10.0 miles NE 6.9 mph - N/A   Clear
5:35 AM 59.0 °F 53.6 °F 82% 30.06 in 10.0 miles ENE 6.9 mph - N/A   Clear
5:55 AM 59.0 °F 53.6 °F 82% 30.06 in 10.0 miles ENE 6.9 mph - N/A   Clear
6:15 AM 59.0 °F 53.6 °F 82% 30.06 in 10.0 miles NE 5.8 mph - N/A   Clear
6:55 AM 59.0 °F 55.4 °F 88% 30.08 in 10.0 miles ENE 5.8 mph - N/A   Clear
7:15 AM 59.0 °F 55.4 °F 88% 30.07 in 10.0 miles ENE 5.8 mph - N/A   Clear
7:35 AM 59.0 °F 55.4 °F 88% 30.09 in 10.0 miles ENE 6.9 mph - N/A   Clear
7:55 AM 60.8 °F 55.4 °F 82% 30.10 in 10.0 miles NE 8.1 mph - N/A   Clear
8:15 AM 62.6 °F 57.2 °F 82% 30.10 in 10.0 miles NE 6.9 mph - N/A   Clear
8:35 AM 62.6 °F 57.2 °F 82% 30.11 in 10.0 miles NE 8.1 mph - N/A   Clear
8:55 AM 62.6 °F 57.2 °F 82% 30.11 in 10.0 miles NE 6.9 mph - N/A   Clear
9:15 AM 64.4 °F 57.2 °F 77% 30.12 in 10.0 miles ENE 6.9 mph - N/A   Clear
9:35 AM 68.0 °F 59.0 °F 73% 30.12 in 10.0 miles East 5.8 mph - N/A   Clear
9:55 AM 69.8 °F 59.0 °F 68% 30.13 in 10.0 miles East 5.8 mph - N/A   Clear
10:15 AM 71.6 °F 60.8 °F 69% 30.13 in 10.0 miles ESE 4.6 mph - N/A   Clear
10:35 AM 71.6 °F 60.8 °F 69% 30.12 in 10.0 miles SSE 5.8 mph - N/A   Clear
10:55 AM 73.4 °F 60.8 °F 65% 30.12 in 10.0 miles South 5.8 mph - N/A   Clear
11:15 AM 73.4 °F 60.8 °F 65% 30.12 in 10.0 miles SE 3.5 mph - N/A   Clear
11:35 AM 73.4 °F 60.8 °F 65% 30.11 in 10.0 miles Calm Calm - N/A   Clear
11:55 AM 73.4 °F 60.8 °F 65% 30.10 in 10.0 miles South 4.6 mph - N/A   Clear
12:15 PM 75.2 °F 60.8 °F 61% 30.09 in 10.0 miles South 3.5 mph - N/A   Clear
12:35 PM 77.0 °F 62.6 °F 61% 30.09 in 10.0 miles SSW 5.8 mph - N/A   Clear
12:55 PM 77.0 °F 62.6 °F 61% 30.07 in 10.0 miles South 3.5 mph - N/A   Clear
1:15 PM 77.0 °F 60.8 °F 57% 30.07 in 10.0 miles South 3.5 mph - N/A   Scattered Clouds
1:35 PM 78.8 °F 60.8 °F 54% 30.06 in 10.0 miles South 3.5 mph - N/A   Scattered Clouds
1:55 PM 78.8 °F 60.8 °F 54% 30.05 in 10.0 miles Calm Calm - N/A   Scattered Clouds
2:15 PM 78.8 °F 60.8 °F 54% 30.04 in 10.0 miles SW 5.8 mph - N/A   Scattered Clouds
2:35 PM 78.8 °F 60.8 °F 54% 30.04 in 10.0 miles SSW 4.6 mph - N/A   Clear
2:55 PM 78.8 °F 60.8 °F 54% 30.03 in 10.0 miles Calm Calm - N/A   Clear
3:15 PM 78.8 °F 60.8 °F 54% 30.03 in 10.0 miles SW 4.6 mph - N/A   Scattered Clouds
3:35 PM 78.8 °F 59.0 °F 51% 30.01 in 10.0 miles SSW 4.6 mph - N/A   Scattered Clouds
3:55 PM 78.8 °F 59.0 °F 51% 30.01 in 10.0 miles South 4.6 mph - N/A   Clear
4:15 PM 78.8 °F 62.6 °F 57% 30.02 in 10.0 miles SSW 9.2 mph - N/A   Clear
4:35 PM 77.0 °F 62.6 °F 61% 30.01 in 10.0 miles SSW 8.1 mph - N/A   Clear
4:55 PM 77.0 °F 62.6 °F 61% 30.01 in 10.0 miles SW 9.2 mph - N/A   Clear
5:15 PM 77.0 °F 62.6 °F 61% 30.01 in 10.0 miles SW 6.9 mph - N/A   Clear
5:35 PM 75.2 °F 60.8 °F 61% 30.01 in 10.0 miles SW 6.9 mph - N/A   Clear
5:55 PM 73.4 °F 60.8 °F 65% 30.01 in 10.0 miles WSW 5.8 mph - N/A   Clear
6:15 PM 73.4 °F 60.8 °F 65% 30.02 in 10.0 miles WSW 4.6 mph - N/A   Clear
6:35 PM 71.6 °F 60.8 °F 69% 30.02 in 10.0 miles WSW 4.6 mph - N/A   Clear
6:55 PM 71.6 °F 60.8 °F 69% 30.03 in 10.0 miles Calm Calm - N/A   Clear
7:15 PM 71.6 °F 60.8 °F 69% 30.03 in 10.0 miles Calm Calm - N/A   Clear
7:35 PM 69.8 °F 62.6 °F 78% 30.03 in 10.0 miles Calm Calm - N/A   Clear
7:55 PM 69.8 °F 62.6 °F 78% 30.03 in 10.0 miles Calm Calm - N/A   Clear
8:15 PM 69.8 °F 62.6 °F 78% 30.04 in 10.0 miles Calm Calm - N/A   Clear
8:35 PM 68.0 °F 62.6 °F 83% 30.04 in 10.0 miles Calm Calm - N/A   Clear
8:55 PM 68.0 °F 60.8 °F 78% 30.04 in 10.0 miles Calm Calm - N/A   Clear
9:15 PM 68.0 °F 62.6 °F 83% 30.04 in 10.0 miles Calm Calm - N/A   Clear
9:35 PM 66.2 °F 60.8 °F 83% 30.05 in 10.0 miles Calm Calm - N/A   Clear
9:55 PM 66.2 °F 60.8 °F 83% 30.05 in 10.0 miles Calm Calm - N/A   Scattered Clouds
10:15 PM 68.0 °F 60.8 °F 78% 30.05 in 10.0 miles Calm Calm - N/A   Mostly Cloudy
10:35 PM 68.0 °F 62.6 °F 83% 30.05 in 10.0 miles Calm Calm - N/A   Mostly Cloudy
10:55 PM 66.2 °F 62.6 °F 88% 30.05 in 10.0 miles Calm Calm - N/A   Scattered Clouds
11:15 PM 66.2 °F 62.6 °F 88% 30.05 in 10.0 miles Calm Calm - N/A   Scattered Clouds
11:35 PM 68.0 °F 62.6 °F 83% 30.05 in 10.0 miles Calm Calm - N/A   Mostly Cloudy
11:55 PM 66.2 °F 60.8 °F 83% 30.05 in 10.0 miles Calm Calm - N/A   Scattered Clouds
ADVERTISEMENT
Enter city or zip code to search weather conditions:

My favorites Edit

Rain
50°
Rain

Clear
45°
Clear

Overcast
52°
Overcast


  • 490 First Avenue South
  • St. Petersburg, FL 33701
  • 727-893-8111